Weather Roundup
Issued by NWS Springfield, MO

Home | Current Version | Previous Version | Text Only | Print | Product List | Glossary On
Versions: 1 2 3 4 5 6 7 8 9 10 11 12 13 14 15 16 17 18 19 20 21 22 23 24 25 26 27 28 29 30 31 32 33 34 35 36 37 38 39 40 41 42 43 44 45 46 47 48 49 50
000
NZUS99 KSGF 300507
HRRSGF

HOURLY WEATHER
NATIONAL WEATHER SERVICE SPRINGFIELD MO
1200 AM CDT MON MAR 30 2015

......SGF CWA......

CITY           SKY/WX    TMP DP  RH WIND       PRES   REMARKS
SPRINGFIELD    CLEAR     48  41  76 W6        30.16R
JOPLIN         CLEAR     45  40  82 CALM      30.18R
WEST PLAINS    CLEAR     51  39  63 NW6       30.14R
ROLLA          CLEAR     47  38  71 NW6       30.12R
OSAGE BEACH    CLEAR     50  37  62 NW3       30.15S
BRANSON        CLEAR     50  43  76 CALM      30.15S

......SURROUNDING SGF CWA......

CITY           SKY/WX    TMP DP  RH WIND       PRES   REMARKS
CHANUTE        CLEAR     51  38  60 N3        30.19R
PARSONS        CLEAR     46  39  76 CALM      30.19R
COFFEYVILLE    CLEAR     50  40  68 NE5       30.18R
EMPORIA        CLEAR     45  33  63 CALM      30.19R
GROVE OK       CLEAR     45  45 100 CALM      30.18S
ROGERS AR      CLEAR     47  43  86 NW3       30.18R
SILOAM SPRINGS CLEAR     46  39  76 N3        30.17S
HARRISON AR    CLEAR     53  42  66 W5        30.14S
NEAR YELLVILLE CLEAR     54  41  62 N3        30.13S

......KANSAS AND MISSOURI......

CITY           SKY/WX    TMP DP  RH WIND       PRES   REMARKS
KANSAS CTY INT CLEAR     51  34  52 W6        30.16R
DOWNTOWN KC    CLEAR     46  37  71 CALM      30.16R
COLUMBIA       CLEAR     48  38  68 W7        30.13R
SEDALIA        CLEAR     47  37  68 W7        30.15F
ST JOSEPH      NOT AVBL
ST LOUIS       PTCLDY    48  38  68 W5        30.09R
SPIRIT OF STL  CLEAR     46  38  73 W7        30.09R
KIRKSVILLE     CLEAR     42  34  73 W7        30.11R
WICHITA        CLEAR     53  33  46 NE8       30.19R
TOPEKA         CLEAR     39  34  82 CALM      30.18R
OLATHE         CLEAR     47  34  60 CALM      30.16R

......TENNESSEE......

CITY           SKY/WX    TMP DP  RH WIND       PRES   REMARKS
MEMPHIS        TSTM      60  56  86 N3        30.04R
NASHVILLE      LGT RAIN  54  41  61 S6        30.08F

......ARKANSAS.......

CITY           SKY/WX    TMP DP  RH WIND       PRES   REMARKS
FAYETTEVILLE   CLEAR     44  43  96 CALM      30.16S
FT SMITH       CLEAR     52  45  77 CALM      30.14S
LITTLE ROCK    MOCLDY    64  48  56 NW9       30.09R

......OKLAHOMA.......

CITY           SKY/WX    TMP DP  RH WIND       PRES   REMARKS
TULSA          CLEAR     51  43  74 CALM      30.15R
PONCA CITY     CLEAR     45  35  68 NE6       30.17S
MCALESTER      PTCLDY    54  44  69 CALM      30.14R
OKLAHOMA CITY  PTCLDY    59  43  55 N3        30.17R

......IOWA............

CITY           SKY/WX    TMP DP  RH WIND       PRES   REMARKS
DES MOINES     CLEAR     45  23  42 W6        30.11R
QUAD CITIES    CLEAR     45  30  55 NW12      30.02R

......ILLINOIS........

CITY           SKY/WX    TMP DP  RH WIND       PRES   REMARKS
QUINCY         FAIR      45  35  68 W7        30.08R
CHICAGO        PTCLDY    40  33  76 W5        29.93R



USA.gov is the U.S. government's official web portal to all federal, state and local government web resources and services.